Regional Weather Roundup
Issued by NWS

Home | Current Version | Previous Version | Graphics & Text | Print | Product List | Glossary On
Versions: 1 2 3 4 5 6 7 8 9 10 11 12 13 14 15 16 17 18 19 20 21 22 23 24 25 26 27 28 29 30 31 32 33 34 35 36 37 38 39 40 41 42 43 44 45 46 47 48 49 50
625
ASUS43 KMKX 211510
RWRWI

WISCONSIN REGIONAL WEATHER ROUNDUP
NATIONAL WEATHER SERVICE MILWAUKEE/SULLIVAN WI
1000 AM CDT SAT APR 21 2018

NOTE: "FAIR" INDICATES FEW OR NO CLOUDS BELOW 12,000 FEET WITH NO
SIGNIFICANT WEATHER AND/OR OBSTRUCTIONS TO VISIBILITY.

WIZ001-002-006>008-014>016-023>028-211600-
NORTHWEST WISCONSIN

CITY           SKY/WX    TMP DP  RH WIND       PRES   REMARKS
SUPERIOR ARPT  FAIR      48  26  42 SW5       30.42F
ASHLAND        FAIR      49  21  33 SW5       30.42F
HAYWARD        FAIR      48  22  35 CALM      30.42F
SIREN          FAIR      49  20  31 CALM      30.42S
CUMBERLAND     FAIR      39  19  45 CALM      30.43S
RICE LAKE      FAIR      42  25  49 CALM      30.45S
CHETEK         FAIR      44  21  40 CALM      30.43S
LADYSMITH      FAIR      48  20  32 CALM      30.44S
EAU CLAIRE     FAIR      46  25  43 NE3       30.42F
MENOMONIE      FAIR      44  27  51 CALM      30.43S
NEW RICHMOND   FAIR      44  27  50 CALM      30.43S
OSCEOLA        FAIR      46  26  44 CALM      30.46S
$$

WIZ003>005-009-010-017-018-211600-
NORTH CENTRAL WISCONSIN

CITY           SKY/WX    TMP DP  RH WIND       PRES   REMARKS
MANITOWISH WTR FAIR      47  19  32 CALM      30.41F
ARBOR VITAE    FAIR      52  18  26 CALM      30.41S
WOODRUFF       FAIR      52  18  26 CALM      30.41S
RHINELANDER    FAIR      51  16  24 CALM      30.41F
EAGLE RIVER    FAIR      49  16  27 CALM      30.40F
LAND O LAKES   FAIR      52  16  23 CALM      30.41F
PHILLIPS       FAIR      47  21  35 CALM      30.41F
TOMAHAWK       FAIR      49  17  28 CALM      30.42F
MEDFORD        FAIR      43  21  42 S6        30.42S
MERRILL          N/A     44  22  43 CALM      30.44S
$$

WIZ029-030-035-036-043>047-211600-
CENTRAL WISCONSIN

CITY           SKY/WX    TMP DP  RH WIND       PRES   REMARKS
WAUSAU         FAIR      44  22  41 CALM      30.42S
MOSINEE        PTSUNNY   45  23  42 CALM      30.44S
MARSHFIELD     FAIR      45  21  38 SE3       30.42S
STEVENS POINT  FAIR      45  19  34 CALM      30.44S
WAUPACA        FAIR      45  24  43 CALM      30.46R
WAUTOMA        FAIR      43  23  45 CALM      30.46R
WISC RAPIDS    FAIR      45  19  35 SW5       30.44F
CAMP DOUGLAS   CLOUDY    41  25  52 CALM      30.42F
$$

WIZ011>013-019>022-031-037>040-048>050-211600-
NORTHEAST WISCONSIN

CITY           SKY/WX    TMP DP  RH WIND       PRES   REMARKS
ANTIGO         FAIR      44  22  42 CALM      30.43S
SHAWANO        FAIR      49  20  32 W3        30.44S
OCONTO         FAIR      47  21  35 W3        30.44S
STURGEON BAY   FAIR      49  22  34 W6        30.44F
GREEN BAY      FAIR      42  25  50 SW5       30.45F
MANITOWOC      FAIR      47  18  31 W5        30.47S
APPLETON       PTSUNNY   45  19  36 CALM      30.44S
CLINTONVILLE   FAIR      43  20  40 CALM      30.44F
OSHKOSH        FAIR      40  27  59 S5        30.45S
$$

WIZ032>034-041-042-053>061-211600-
SOUTHWEST WISCONSIN

CITY           SKY/WX    TMP DP  RH WIND       PRES   REMARKS
LA CROSSE      FAIR      44  32  62 CALM      30.44S
SPARTA         FAIR      41  28  59 CALM      30.44F
VIROQUA        PTSUNNY   44  32  62 SW3       30.42S
BOSCOBEL       CLOUDY    43  32  65 CALM      30.45S
PRAIRIE DU CHI LGT RAIN  44  33  63 S3        30.46R
PLATTEVILLE    CLOUDY    46  34  63 SE3       30.46S
$$

WIZ056-057-062-063-064-067-068-211600-
SOUTH CENTRAL WISCONSIN

CITY           SKY/WX    TMP DP  RH WIND       PRES   REMARKS
REEDSBURG      FAIR      38  29  69 CALM      30.44S
BARABOO/DELLS  FAIR      40  22  47 CALM      30.44S
LONE ROCK      CLOUDY    43  32  65 E3        30.44F
MINERAL POINT  FAIR      48  19  32 SE3       30.45R
MADISON        CLOUDY    43  32  65 S3        30.45F
MIDDLETON      FAIR      47  29  49 S3        30.45F
WATERTOWN      FAIR      42  22  45 CALM      30.46S
MONROE         FAIR      45  21  39 S5        30.45S
JANESVILLE     CLOUDY    48  19  32 CALM      30.46S
$$

WIZ051-052-058>065-066-070>072-211600-
SOUTHEAST WISCONSIN

CITY           SKY/WX    TMP DP  RH WIND       PRES   REMARKS
MILWAUKEE      CLOUDY    46  24  42 CALM      30.47S
WAUKESHA       MOSUNNY   39  23  52 CALM      30.47S
MILWAUKEE/TIMM MOSUNNY   41  25  52 CALM      30.48R
RACINE         FAIR      46  24  42 CALM      30.48R
BURLINGTON     FAIR      42  27  57 CALM      30.47R
KENOSHA        CLOUDY    45  25  45 CALM      30.47R
FOND DU LAC    FAIR      43  17  35 S5        30.46S
SHEBOYGAN      FAIR      47  26  44 S5        30.46S
WEST BEND      FAIR      43  23  45 CALM      30.47R
JUNEAU         FAIR      41  25  51 SE3       30.47S
$$

LSZ147-162-211600-
LAKE SUPERIOR

STATION/POSITION TIME  TEMP    WIND        PRES    WAVE
                       AIR SEA DIR/SP/G            HT/PER
                 (UTC) (F)     (DEG/KT/KT) (MB)    (FT/S)
DEVILS ISLAND    1500   39     230/ 10/ 12 1030.6F
SAXON HARBOR     1430          310/  5/  6 1029.5S
$$

LMZ867-665-643>646-211600-
LAKE MICHIGAN

STATION/POSITION TIME  TEMP    WIND        PRES    WAVE
                       AIR SEA DIR/SP/G            HT/PER
                 (UTC) (F)     (DEG/KT/KT) (MB)    (FT/S)
NORTHPORT PIER   1440   37                 1030.5S
KEWAUNEE LAKESHO 1442   39     170/  9/ 10 1030.2F
SHEBOYGAN LAKESH 1500   43     190/  4/  4 1031.9F
PORT WASHINGTON  1440   42      CALM  /  2 1032.5S
MILWAUKEE LAKESH 1450   41        CALM       N/A
KENOSHA   LAKESH 1500   39                 1031.8
$$

TC  - TEMPERATURE IN CELSIUS
VSB - VISIBILITY IN STATUTE MILES
WCI - WIND CHILL INDEX
HX  - HEAT INDEX





USA.gov is the U.S. government's official web portal to all federal, state and local government web resources and services.